Weather History for KDNL - September, 2013

Change the Weather History Date:

Wednesday, September 18, 2013

  Actual Average Record
Temperature  
Mean Temperature 72 °F -  
Max Temperature 81 °F 81 °F 95 °F (2005)
Min Temperature 62 °F 63 °F 59 °F (2001)
Cooling Degree Days 7    
Month to date cooling degree days 269  
Year to date cooling degree days 1871  
Growing Degree Days 22 (Base 50)    
Moisture  
Dew Point 54 °F    
Average Humidity 57    
Maximum Humidity 78    
Minimum Humidity 39    
Precipitation  
Precipitation 0.00 in - - ()
Month to date precipitation 0.58  
Year to date precipitation 49.65  
Sea Level Pressure  
Sea Level Pressure 30.20 in    
Wind  
Wind Speed 7 mph (NE)    
Max Wind Speed 14 mph    
Max Gust Speed 18 mph    
Visibility 10 miles    
Events      
Averages and records for this station are not official NWS values.
T = Trace of Precipitation, MM = Missing Value Source: NWS Daily Summary

Daily Weather History Graph

Daily Weather History Graph

Search for Another Location

Airport or City:

Trip Planner

Search our weather history database for the weather conditions in past years. The results will help you decide how hot, cold, wet, or windy it might be!

Date:

Astronomy

Sep. 18, 2013 Rise Set
Actual Time 7:13 AM EDT 7:30 PM EDT
Civil Twilight 6:48 AM EDT 7:54 PM EDT
Nautical Twilight 6:19 AM EDT 8:23 PM EDT
Astronomical Twilight 5:50 AM EDT 8:53 PM EDT
Moon 6:53 PM EDT (9/18) 6:15 AM EDT (9/18)
Length of Visible Light 13h 05m
Length of Day
12h 16m
Waxing Gibbous, 99% of the Moon is Illuminated
Sep 18
Waxing Gibbous
Sep 19
Full
Sep 26
Last Quarter
Oct 4
New
Oct 11
First Quarter

Hourly Weather History & Observations

Time (EDT) Temp. Heat Index Dew Point Humidity Pressure Visibility Wind Dir Wind Speed Gust Speed Precip Events Conditions
12:53 AM 69.1 °F - 55.9 °F 63% 30.20 in 10.0 mi ENE 5.8 mph - N/A   Clear
1:53 AM 68.0 °F - 54.0 °F 61% 30.20 in 10.0 mi ENE 9.2 mph - N/A   Clear
2:53 AM 68.0 °F - 54.0 °F 61% 30.19 in 10.0 mi ENE 10.4 mph - N/A   Clear
3:53 AM 66.0 °F - 55.0 °F 68% 30.19 in 10.0 mi ENE 10.4 mph - N/A   Clear
4:53 AM 64.9 °F - 55.0 °F 70% 30.19 in 10.0 mi ENE 9.2 mph - N/A   Clear
5:53 AM 64.0 °F - 55.0 °F 73% 30.20 in 10.0 mi ENE 10.4 mph - N/A   Clear
6:53 AM 63.0 °F - 55.0 °F 75% 30.22 in 10.0 mi ENE 9.2 mph - N/A   Mostly Cloudy
7:53 AM 63.0 °F - 54.0 °F 72% 30.23 in 10.0 mi NE 8.1 mph - N/A   Clear
8:53 AM 64.9 °F - 53.1 °F 65% 30.25 in 10.0 mi ENE 10.4 mph - N/A   Clear
9:53 AM 68.0 °F - 53.1 °F 59% 30.26 in 10.0 mi ENE 8.1 mph - N/A   Clear
10:53 AM 70.0 °F - 53.1 °F 55% 30.25 in 10.0 mi ENE 9.2 mph - N/A   Overcast
11:53 AM 73.0 °F - 53.1 °F 49% 30.25 in 10.0 mi ENE 9.2 mph - N/A   Clear
12:53 PM 75.0 °F - 54.0 °F 48% 30.24 in 10.0 mi NE 6.9 mph - N/A   Partly Cloudy
1:53 PM 75.9 °F - 52.0 °F 43% 30.21 in 10.0 mi East 6.9 mph - N/A   Scattered Clouds
2:53 PM 78.1 °F - 52.0 °F 40% 30.19 in 10.0 mi Calm Calm - N/A   Mostly Cloudy
3:53 PM 78.1 °F - 53.1 °F 42% 30.17 in 10.0 mi NE 4.6 mph - N/A   Clear
4:53 PM 79.0 °F - 54.0 °F 42% 30.16 in 10.0 mi North 5.8 mph - N/A   Clear
5:53 PM 80.1 °F 80.1 °F 55.0 °F 42% 30.14 in 10.0 mi NNW 4.6 mph - N/A   Clear
6:53 PM 77.0 °F - 57.0 °F 50% 30.15 in 10.0 mi NNW 5.8 mph - N/A   Clear
7:53 PM 73.9 °F - 57.0 °F 55% 30.15 in 10.0 mi NNE 5.8 mph - N/A   Clear
8:53 PM 73.0 °F - 55.9 °F 55% 30.17 in 10.0 mi ENE 6.9 mph - N/A   Clear
9:53 PM 71.1 °F - 55.9 °F 59% 30.17 in 10.0 mi ENE 4.6 mph - N/A   Clear
10:53 PM 69.1 °F - 55.9 °F 63% 30.18 in 10.0 mi East 3.5 mph - N/A   Clear
11:53 PM 69.1 °F - 55.9 °F 63% 30.18 in 10.0 mi Calm Calm - N/A   Clear